Location: Nairn
(57.5833°N, 3.8667°W)
Time: 23:17:48
(UTC+00:00)

deb Explorer IX - Visible Passes

Search period start: 25 November 2020 00:00
Search period end: 05 December 2020 00:00
Orbit: 538 x 1104 km, 38.8° (Epoch: 25 November)

Date Brightness Start Highest point End Pass type
(mag) Time Alt. Az. Time Alt. Az. Time Alt. Az.
01 Dec ? 17:31:02 10° S 17:32:08 11° S 17:33:12 10° SSE visible
02 Dec ? 17:07:05 10° SSW 17:08:47 11° S 17:10:26 10° SSE visible
03 Dec ? 16:43:16 10° SSW 16:45:26 12° S 16:47:29 10° SSE visible
04 Dec ? 16:19:30 10° SSW 16:22:03 13° S 16:24:28 10° SSE visible
